Cros Sant Pau 2013

Degut a la pluja alguns dorsals no van arribar al final de la cursa per això les classificacions no estan completes. Demanem disculpes i esperem solucionar aquests problemes per altres edicions. Gracies i salut,

 

 

 

GENERAL
POSICIÓ TEMPS DORSAL NOM CATEG. MAS/FEM LOCAL/VIS
1 0:59:13 201 Alvaro rance O M V
2 0:59:17 276 RICHARD CALLE MARTINEZ O M V
3 0:59:39 97 carlos antones poy O M V
4 1:00:09 260 VICTOR PEÑA CORTES O M V
5 1:00:58 232 SERGIO MONTES I MOLINA O M V
6 1:03:11 196 Jordi Grau Sogas O M V
7 1:03:22 155 ERIC LLAURADÓ ORTIZ O M V
8 1:03:27 70 GERARD GIL O M V
9 1:04:07 63 Jordi Martinez Olivares O M L
10 1:04:36 225 PERE CAMACHO OLIVELLA V M V
11 1:04:50 292 JESUS TENOR PAVON V M V
12 1:05:33 357 Jordi Serrai Fullera O M V
13 1:05:58 271 MANUEL LINARES CHACON V M V
14 1:06:13 280 TONI MATARO PASCUAL O M L
15 1:06:25 16 JuanMi Pascual Cuervo O M L
16 1:06:56 95 Cosme Pon Palma O M V
17 1:07:09 278 JUAN ANTONIO RUIZ MARTINEZ V M L
18 1:07:20 36 Cristian Palma Gómez O M L
19 1:07:55 256 JOSE ALONSO MARTIN V M V
20 1:08:18 268 DAVID GRACIA HIDALGO O M V
21 1:08:34 335 JAVIER MORENO ARANDA V M L
22 1:08:45 147 Ricard Belascoain P M V
23 1:09:17 275 JOSEP MORALES LOPEZ I M L
24 1:09:30 253 ISMAEL RUIZ VILLAR V M V
25 1:09:48 67 Israel Prieto Artigas O M V
26 1:10:04 115 Joan Gómez V M V
27 1:10:06 216 Lluís Grau sogas V M V
28 1:10:14 32 Pau Jasanada Massana O M V
29 1:10:35 273 ANTONI SUAREZ PEREZ O M V
30 1:10:37 3 Aitor Rumín Caparrós O M V
31 1:10:43 335 JAVIER MORENO ARANDA V M L
32 1:10:50 66 Carlos Martín Carmona O M V
33 1:11:35 250 GUILLEM SANAHUJA MILÀ O M V
34 1:11:51 240 Carlos Armas Suárez V M V
35 1:11:56 13 Raul Batalla Tebar V M L
36 1:12:10 80 oscar mercade lopez O M V
37 1:12:12 116 Nuria Quiroga Bayo O F V
38 1:12:44 287 MANS SELLA MARCET V M V
39 1:12:54 61 jordi mogino i martinez O M V
40 1:12:56 245 Jonathan Pamies Boillos O M V
41 1:12:58 40 Eloi Contreras Parés O M V
42 1:13:18 123 Dídac Masip Masó O M V
43 1:13:35 176 Albert Trius Codes V M V
44 1:13:37 259 ALFONSO SERRANO GUTIERREZ O M V
45 1:14:03 294 PEDRO MALDONADO GUTIERREZ O M V
46 1:14:15 366 APIRAK PRADHASSORN O M L
47 1:14:17 228 Oriol Cusola Aumedes O M V
48 1:14:19 365 JUAN SERRAT GURERA V M L
49 1:14:30 305 MIGUEL RUIZ CUADRA O M V
50 1:14:31 136 Steven Gnagni O M L
51 1:14:32 48 ALEX JIMENEZ NARCISO O M V
52 1:14:33 118 IGNASI DE BOIX FREIXA V M V
53 1:14:34 151 Marcos Rodríguez Díaz O M V
54 1:14:56 361 JOSEP SEGURA FERRET O M L
55 1:16:09 329 JUAN JOSE ARGUBAY PONBO V M V
56 1:16:17 177 Xavier Sevilla Gil V M L
57 1:16:19 152 Jordi Carbonell i Cuadras O M L
58 1:17:21 94 Albert Guiluz O M V
59 1:17:25 279 OLGA SEPULVEDA SERRANO O F V
60 1:17:38 241 Santi Cuenca Fortes O M V
61 1:17:41 316 ALEXIS SERRA MARCOS O M V
62 1:17:43 341 MIRIAM DE LAFFOREST O F V
63 1:18:21 146 Javier Plasencia Figueroa O M V
64 1:18:22 47 Manel Montoliu O M V
65 1:18:24 374 JOAN CATALA RONSANZ O M L
66 1:18:25 137 Daniel Bertran Carbonell V M V
67 1:18:26 74 Pau Soler Ramos O M L
68 1:18:27 257 JOSE FLORES BERTRAN O M V
69 1:19:05 185 Pau Ramon Montané O M V
70 1:19:06 30 joan carles lorente caro V M V
71 1:19:08 51 Iu Benet Duran O M V
72 1:19:11 19 manel gómez robert P M L
73 1:19:30 266 MANEL PAREJA FENDAS V M V
74 1:19:31 345 ORIOL CODORNIU LIARTE V M V
75 1:19:32 269 JORDI HERRAIZ MARMOL O M V
76 1:19:33 356 GERARD ROSES BARTES O M V
77 1:19:34 235 Raimon Mestres Cabeza O M V
78 1:19:34 288 JOSE MARIA LASQUIBAR DE LA TORRE V M V
79 1:19:35 334 MIGUEL ANGEL ARAUJO LENDRERO V M V
80 1:19:36 98 JORDI EROLES i ASÈNSIO V M L
81 1:19:37 144 David Dolz Ferriz O M V
82 1:19:38 172 Sergio Pueyo Canalis O M V
83 1:19:39 313 RICARD ANDREU ALBARADO V M V
84 1:19:56 227 XAVI CALLAO MESTRE O M L
85 1:19:57 258 FRANCISCO NAVARRO PORRAS O M V
86 1:19:58 1 JOSEP BAROT CASANY V M V
87 1:19:58 231 Antonio Serrano V M V
88 1:19:59 202 Isabel gievara O F V
89 1:20:00 340 ANDREU DICHOS MUÑOZ O M V
90 1:20:01 164 Antoni Reynés Cobija V M V
91 1:20:01 337 ADRIA GARCIA NICOLAS O M V
92 1:20:02 117 Israel Millan Solé O M L
93 1:20:03 76 josep guillaumes mestre P M L
94 1:20:04 155 ERIC LLAURADÓ ORTIZ O M V
95 1:22:05 2 Sebas Baca O M V
96 1:22:07 128 SALVADOR  ZORRILLA  MORENO V M V
97 1:22:10 107 Alejandro Saavedra Mata O M V
98 1:23:35 182 Frederic Ràfols Barrufet P M V
99 1:23:37 284 IVAN DE DIOS ROBLES V M V
100 1:23:46 110 Francesc Xavier Lozada Espí P M V
101 1:23:48 270 GUILLEM GRIMAU BEL O M V
102 1:23:50 222 jose antonio bellido romero O M V
103 1:23:54 298 JAVIHO MUNERA PALOMEUQE O M L
104 1:23:57 359 NICOLAS RAVENTOS JUADO O M L
105 1:24:40 353 Raul Roch Blom V M V
106 1:24:43 54 Victor Martinez Cruz O M L
107 1:24:58 286 PERE MARTIN ORDOÑEZ V M V
108 1:25:00 26 Jordi Torreño Vazquez O M V
109 1:25:21 242 sadurni roca dols V M V
110 1:25:23 321 ORIOL PINA CANALS O M V
111 1:25:56 283 ISMAEL COBO PIMENTEL V M V
112 1:26:38 267 EVANGELOS PAPANIKOS V M L
113 1:26:41 280 TONI MATARO PASCUAL O M L
114 1:26:43 219 Gerard Ferrer Bertran O M V
115 1:26:44 228 Oriol Cusola Aumedes O M V
116 1:26:45 230 Natàlia Butí O F L
117 1:26:46 202 Isabel gievara O F V
118 1:26:47 104 JORDI RODRIGUEZ SANTOS I M V
119 1:26:48 103 JORGE RODRIGUEZ BAUTISTA O M V
120 1:26:49 272 KAREN FORDHAM V F V
121 1:26:49 349 XAVIER VILANOVA GARRIGO V M V
122 1:26:50 252 cristian ruiz villar O M V
123 1:26:51 11 angel martinez olivares O M L
124 1:26:52 282 XAVIER CASTANY GONZALEZ O M L
125 1:26:53 166 Ludmila Fuster Arion O F V
126 1:26:54 373 SERGI FERRAN POLO O M V
127 1:26:55 311 JOAN PUIG BATET P M V
128 1:26:55 283 ISMAEL COBO PIMENTEL V M V
129 1:26:56 302 MARCO GONZALEZ JOSEPH O M V
130 1:26:57 303 FELIX OORTHUIS P M L
131 1:26:59 129 JORDI  GUAPO  SANCHEZ O M V
132 1:27:00 21 Javier Fernández Buitrago V M V
133 1:27:05 382 LUCIANO GRADOS GALAN V M V
134 1:27:07 212 Iván Pujol Mateo V M V
135 1:27:08 211 Ricard Segura Altés O M V
136 1:27:09 28 SANTIAGO ABRIL AMOROS V M V
137 1:27:10 312 FEDE ESTEBAN SANCHEZ O M V
138 1:27:11 170 Jaume Piñol Sendra O M V
139 1:29:56 190 Daniel Guerrero Bayon O M V
140 1:29:57 264 TONI GARCIA ESCRIBANO O M V
141 1:29:58 354 JUAN MANCEBO SIERRA P M V
142 1:29:59 308 ANGEL HOM BAGÉ V M V
143 1:30:00 122 Jordi Sella Marcet P M V
144 1:30:01 307 ELISABETH AMAT GUASCH O F V
145 1:30:02 261 JORDI MESTRE MASSANA O M L
146 1:30:03 315 JOSEP Mª OLIVA COLET V M V
147 1:36:11 300 JOSE MANUEL GONZALVEZ GARCIA V M V
148 1:36:15 204 RICARD GARCIA ORCERA O M L
149 1:36:16 302 MARCO GONZALEZ JOSEPH O M V
150 1:36:17 337 ADRIA GARCIA NICOLAS O M V
151 1:36:18 355 JORDI VCABDET FARGAS V M V
152 1:36:18 153 Gerard Gómez Pagès O M L
153 1:36:20 306 GALO MATEO ROMERO O M L
154 1:36:20 44 Cristina Gonzalez Jiménez O F V
155 1:36:21 103 JORGE RODRIGUEZ BAUTISTA O M V
157 1:37:28 12 Andreu López Anadón P M V
158 1:37:29 133 Chema Peral Jiménez O M V
160 1:37:30 62 Stefan de Vries O M V
161 1:37:31 220 Alfredo Jimenez Perez de la Lastra O M V
162 1:37:32 285 ENRIC PEREZ BRIGNARDELLI P M V
163 1:37:33 5 Patrick Prat aviles O M L
164 1:37:34 336 JOSE LUIS CATALAPIEDRA V M L
165 1:38:44 254 JAME ARBOLES SEBASTIA V M L
166 1:38:45 213 JOSEP COLS P M V
167 1:38:46 318 DANI PEREZ MORGADO O M V
168 1:38:47 309 JORDI DABAN YLL O M L
169 1:41:43 126 gisela campuzano i canades V F V
170 1:41:44 299 ALBERT ESTEVE SALVANY V M V
171 1:41:45 91 OLGA CERDANS SERRA O F L
172 1:41:45 165 DAVID FERNANDEZ GARCIA O M V
173 1:41:46 351 JOSE SERRANO GIMENEZ P M V
174 1:41:47 150 JUAN JOSE SILVA INFANTE V M V
175 1:41:47 368 ANNA CATLLA ROVIRA V F V
176 1:41:48 100 octavi delgado padilla V M V
177 1:41:49 175 IGNASI GIL PALACIOS P M V
178 1:41:49 93 Daniel Elies Tremoleda V M V
179 1:41:50 221 Ramon Mitjans Font V M L
180 1:41:51 119 albert catlla rovira O M V
181 1:41:51 291 ANTON GUSCH ESTRADA O M V
182 1:42:28 348 DAVID CUBEDO BERGA O M L
183 1:42:29 230 Natàlia Butí O F L
184 1:42:30 163 FRANCESC CINCA LLORDÉS P M V
185 1:42:30 22 Jacinto Fernández Buitrago V M V
186 1:42:31 191 ANAHI BAGES SANABRA O F V
187 1:42:32 314 FELIX CLAEYS BARGUÑO V M V
188 1:42:32 343 DAVID FRANCO ESTALELLA V M L
189 1:42:33 347 JORDI BAQUES DEL CAMPO O M V
190 1:42:34 274 JUAN MANUEL LEON MORENO O M V
191 1:42:34 192 Josep Marín Castro P M V
192 1:42:35 108 Manel Dolz Ferriz V M V
193 1:42:36 324 JORDI FRANCAS VALLOTTON V M V
194 1:42:36 373 SERGI FERRAN POLO O M V
195 1:43:00 227 XAVI CALLAO MESTRE O M L
196 1:43:05 246 JOAN ANGUS DOMINGO V M V
197 1:43:06 112 XAVIER ALSINA ESTEVE V M V
198 1:43:07 380 MOHA ATSAILALI O M L
199 1:43:08 346 JOAN LOPEZ BARRAGAN O M L
200 1:43:08 265 MARCELO KRASNOV STOLLER V M V
201 1:43:09 363 Juan Carlos Yuste Pascual O M L
202 1:50:50 121 Rosa Aguado Amo V F V
203 1:50:53 327 ANGEL GALLEGO CARRERA O M L
204 1:50:55 191 ANAHI BAGES SANABRA O F V
205 1:50:57 150 JUAN JOSE SILVA INFANTE V M V
206 1:50:57 114 Jordi Beneyto Rosell V M V
207 1:50:58 83 ANTONIA CARDENAS BARRERA P F V
208 1:53:08 289 JOEL BRUGUE PUENTE O M L
209 1:53:15 342 LLUIS ALBA GUILLAUMES V M L
210 1:53:16 344 ALBERT MIRET TORRENTS V M L
211 1:53:59 236 Anna Bertran Valencia O F L
212 1:54:00 233 OLGA ARENAS LOPEZ V F V
213 1:54:01 167 Francisco Vargas Rueda V M V
214 1:54:02 145 Txell Marti Melgar O F V
215 1:54:02 319 BERNAT PINA TOMAS P M V
216 1:54:03 132 Salvador Miret Torrents V M L
217 1:54:04 330 DEBBIE EARL V F V
218 1:54:04 364 FRANCISCO JAVIER TORRES COBO V M L
219 1:54:05 331 COLIN EARL V M V
220 1:59:44 332 DAMIAN POMODORO TEMBORAIN O M V
221 1:59:47 295 MARINA LLAÓ CID O F L
222 2:02:20 88 NURIA GARCIA MORENO O F V
223 2:02:53 183 Rosó Morlà Garcia V F V
224 2:02:55 244 JUAN LUCAS GARCIA P M V
225 2:02:58 339 CRISTINA PUIGMARTI GUILLEN V F V
226 2:07:12 179 Esther Larrosa Montemayor O F L
227 2:08:13 208 Sandra Martínez Bustos O F L

Deixa un comentari

L'adreça electrònica no es publicarà. Els camps necessaris estan marcats amb *